Regional Weather Roundup
Issued by NWS Grand Forks, ND

Home | Current Version | Previous Version | Text Only | Print | Product List | Glossary Off
Versions: 1 2 3 4 5 6 7 8 9 10 11 12 13 14 15 16 17 18 19 20 21 22 23 24 25 26 27 28 29 30 31 32 33 34 35 36 37 38 39 40 41 42 43 44 45 46 47 48 49 50

000
ASUS43 KFGF 250710
RWRFGF
PRAIRIE TO PINES  WEATHER ROUNDUP
NATIONAL WEATHER SERVICE EASTERN NORTH DAKOTA/GRAND FORKS ND
200 AM CDT THU MAY 25 2017

 **SATELLITE DATA USED TO AUGMENT SKY COVER AT AUTOMATED STATIONS**
 *****  WEATHER ACROSS EASTERN NORTH DAKOTA  *****

CITY           SKY/WX    TMP DP  RH WIND       PRES   REMARKS
GRAND FORKS    FAIR      51  43  74 SE10      29.60F
GRAND FRKS AFB FAIR      50  42  74 SE9       29.59F
DEVILS LAKE    FAIR      52  44  74 SE22      29.54F
FARGO          FAIR      53  42  66 SE13      29.60F
WAHPETON ARPT  FAIR      50  41  71 SE13      29.62S
$$

 ***** WEATHER ACROSS CENTRAL AND WESTERN NORTH DAKOTA  *****

CITY           SKY/WX    TMP DP  RH WIND       PRES   REMARKS
BISMARCK       LGT RAIN  56  47  71 SE10      29.46S
MINOT          LGT RAIN  57  50  77 SE8       29.43F
JAMESTOWN      FAIR      50  43  77 SE15      29.55R
MINOT AFB      LGT RAIN  55  52  88 S9        29.41F FOG
GARRISON         N/A     52  48  86 S8        29.44F
WILLISTON      FAIR      53  50  89 S8        29.37F
DICKINSON      CLOUDY    51  48  89 N10       29.41F
HETTINGER      FAIR      51  46  83 N12       29.41S
$$

 *****  OTHER AIRPORT OBSERVATIONS IN OUR AREA  *****

CITY           SKY/WX    TMP DP  RH WIND       PRES   REMARKS
WALHALLA       NOT AVBL
GRAFTON AIRPOR FAIR      50  43  76 SE9       29.61F
VALLEY CITY AR FAIR      50  45  81 SE12      29.59R
CANDO          NOT AVBL
CAVALIER APRT  FAIR      54  41  62 SE10      29.58F
GWINNER        SUNNY     48  45  87 MISG      29.57S
SHEYENNE NWR     N/A     50  46  85 SE14      29.95S
ROLLA          PTSUNNY   52  43  71 S18G30    29.52R
 ***** THE ABOVE OBSERVATIONS ARE NON NWS ARE NOT QUALITY
       CONTROLLED AND MAY MIS-REPORT RAIN FOR SNOW...
$$

  *****  WEATHER ACROSS NORTHERN MINNESOTA  *****

CITY           SKY/WX    TMP DP  RH WIND       PRES   REMARKS
FLAG ISLAND    NOT AVBL
WARROAD        NOT AVBL
ROSEAU         NOT AVBL
HALLOCK        NOT AVBL
THF RVR FALLS  FAIR      48  42  80 SE9       29.66S
BAUDETTE       FAIR      46  39  76 SE9       29.70S
WASKISH        NOT AVBL
CROOKSTON      NOT AVBL
STEPHEN NDAWN    N/A     52  43  71 SE10        N/A
GREENBUSH NDAW   N/A     52  41  66 SE9         N/A
$$
  *****  WEATHER ACROSS CENTRAL AND WEST MINNESOTA  *****

CITY           SKY/WX    TMP DP  RH WIND       PRES   REMARKS
FOSSTON        NOT AVBL
BEMIDJI        NOT AVBL
PARK RAPIDS    MOCLDY    53  41  63 SE7       29.67F
ELBOW LAKE     NOT AVBL
WADENA         NOT AVBL
DETROIT LAKES  NOT AVBL
MOORHEAD       NOT AVBL
FERGUS FALLS   NOT AVBL
MORRIS MN      NOT AVBL
STAPLES        NOT AVBL
$$
  *****  WEATHER ELSEWHERE ACROSS MINNESOTA  *****

CITY           SKY/WX    TMP DP  RH WIND       PRES   REMARKS
DULUTH         FAIR      41  39  93 E5        29.73F
INTRNTL FALLS  FAIR      42  36  79 E6        29.72F
ELY            NOT AVBL
CLOQUET        NOT AVBL
WHEATON        NOT AVBL
BRAINERD       CLOUDY    50  44  80 VRB5      29.70F
HIBBING        FAIR      36  36 100 SE3       29.73F
ALEXANDRIA     FAIR      47  41  80 SE8       29.67F
SAINT CLOUD    FAIR      46  46 100 CALM      29.70S
MINNEAPOLIS    FAIR      53  45  74 E5        29.70S
$$

  *****  WEATHER ACROSS SOUTH DAKOTA  *****

CITY           SKY/WX    TMP DP  RH WIND       PRES   REMARKS
SIOUX FALLS    FAIR      51  45  79 SE13      29.62F
BROOKINGS      FAIR      49  43  80 SE14      29.62S
WATERTOWN      FAIR      49  42  77 SE10      29.59F
HURON          FAIR      51  45  79 SE13      29.55S
SISSETON         N/A     45  44  97 S6        29.59F
ABERDEEN       FAIR      51  42  71 SE16      29.53S
MITCHELL       FAIR      53  45  74 SE12      29.57R
PIERRE         FAIR      56  43  61 SE21G31   29.35F
MOBRIDGE       MOCLDY    58  43  57 SE28G37   29.35F THUNDER
RAPID CITY     FAIR      61  52  72 NW24G32   29.37R
$$

  *****  SOME WEATHER IN NEARBY STATES *****

CITY           SKY/WX    TMP DP  RH WIND       PRES   REMARKS
GLASGOW MT     FAIR      47  21  35 W8        29.35F
GREAT FALLS MT LGT RAIN  43  36  76 W25G35    29.57R
CHEYENNE WY    FAIR      55  36  48 W12       29.62R
SCOTTSBLUFF NE FAIR      58  46  64 N9        29.46R
OMAHA NE       FAIR      53  45  74 SE3       29.67S
DES MOINES IA  FAIR      50  47  89 CALM      29.68F
DAVENPORT IA   FAIR      52  49  89 N7        29.64F
CHICAGO IL     CLOUDY    56  50  80 N10       29.54F
EAU CLAIRE WI  CLOUDY    52  49  89 CALM      29.70S
LA CROSSE WI   MOCLDY    51  48  89 CALM      29.69F
$$

  *****  SOME NATIONAL WEATHER *****

CITY           SKY/WX    TMP DP  RH WIND       PRES   REMARKS
LA GUARDIA NY  CLOUDY    58  51  78 E15       29.77F
RALEIGH NC     CLOUDY    69  67  93 SW9       29.49F
ATLANTA GA     CLOUDY    58  53  84 W8        29.62F
NEW ORLEANS LA FAIR      61  55  81 W5        29.80R
OKLAHOMA CITY  FAIR      55  47  74 SE8       29.70S
ALBUQUERQUE NM FAIR      74  19  12 W18       29.81S
SALT LAKE CITY MOCLDY    64  46  52 NW13      29.56S
LOS ANGELES CA CLOUDY    59  53  80 SW6       29.86R
BOISE ID       FAIR      52  29  41 NW13      29.71R
SEATTLE WA     FAIR      54  42  64 NW5       29.92F
$$

*** WEATHER ACROSS MANITOBA...SASKATCHEWAN AND ONTARIO ***
                ***ONTARIO***

CITY           SKY/WX    TMP DP  RH WIND       PRES   REMARKS
GERALDTON      CLEAR     37  36  93 N2        29.80S
THUNDER BAY    CLEAR     37  36  93 W5        29.78S
SIOUX LOOKOUT  CLEAR     45  32  61 S5        29.76R
TORONTO        LGT RAIN  55  54  94 SE9       29.61F
BIG TROUT LK   CLEAR     46  32  57 SE5       29.75R
PICKLE LAKE    NOT AVBL
DRYDEN         CLEAR     52  37  58 S9        29.74S
KENORA         NOT AVBL
$$
                *** MANITOBA***

CITY           SKY/WX    TMP DP  RH WIND       PRES   REMARKS
BRANDON        CLOUDY    55  43  62 S25G32    29.47S
DAUPHIN        CLOUDY    59  43  55 S16G24    29.44F
ISLAND LAKE    PTCLDY    54  34  47 SE8       29.64R
PILOT MOUND      N/A     52  41  66 SE24G30     N/A
THE PAS        CLOUDY    61  43  51 SE18G24   29.37F
THOMPSON       PTCLDY    50  39  66 E2        29.54F
WINNIPEG       PTCLDY    54  41  62 SE14      29.59F
LYNN LAKE      HAZE      54  37  54 CALM      29.47S VSB 3/4
CHURCHILL      MOCLDY    45  43  93 N9        29.58R
GILLAM         PTCLDY    52  36  54 S7        29.58S
$$
                ***SASKATCHEWAN***

CITY           SKY/WX    TMP DP  RH WIND       PRES   REMARKS
ESTEVAN        PTCLDY    52  48  87 SE17      29.32F
KINDERSLEY     LGT RAIN  45  41  87 SW3       29.17R
LLOYDMINSTER   LGT RAIN  50  50 100 N20G26    29.26S
PRINCE ALBERT  MOCLDY    46  45  93 E2        29.22F
REGINA         PTCLDY    45  34  65 S8        29.25F
YORKTON          N/A     54  48  82 S22G31    29.29F
N. BATTLEFORD  LGT RAIN  48  46  93 N3        29.17F
LA RONGE       LGT RAIN  48  45  87 VRB2      29.35R
SASKATOON      LGT RAIN  46  45  93 SE7       29.19F
SWIFT CURRENT  CLOUDY    45  36  70 SW16      29.16F
$$
NOTE: THESE ARE AUTOMATED STATIONS WITH LIMITED QUALITY CONTROL
      "FAIR" INDICATES FEW OR NO CLOUDS BELOW 12,000 FEET WITH NO
      SIGNIFICANT WEATHER AND/OR OBSTRUCTIONS TO VISIBILITY.
      SKY/WX - SKY CONDITION AND SIGNIFICANT WEATHER.
      TMP - AIR TEMPERATURE.    DP   - DEWPOINT TEMPERATURE.
      RH  - RELATIVE HUMIDITY.  PRES - PRESSURE.
      HX  - HEAT INDEX.         WCI  - WIND CHILL INDEX.
$




USA.gov is the U.S. government's official web portal to all federal, state and local government web resources and services.